sat.trackr.live / text

‹ back to catalog

STARLINK-37724

NORAD 69218 · 2026-115H

PAYLOAD ACTIVE UNKNOWN

§ Identity

Operator
Country
US
Launch date
2026-05-26
Launch site
AFWTR
Launch vehicle
Mass (kg)
RCS (m²)

Purposes: comms

External: N2YO · Heavens-Above · Gunter

§ Orbital elements

Epoch: 2026-09-20T00:14:55.448736Z

Period
93.91 min
Inclination
97.2810°
Eccentricity
0.0002193
Mean motion
15.33457929 rev/d
Perigee alt
464.0 km
Apogee alt
467.0 km
Semi-major
6,843.6 km
B*
4.5485e-4
RAAN
279.0848°
Arg perigee
96.7288°
Mean anomaly
263.4204°
Rev number
1,921

§ Raw data

STARLINK-377241 69218U 26115H   26263.01036399  .00014644  00000+0  45485-3 0  99982 69218  97.2810 279.0848 0002193  96.7288 263.4204 15.33457929 19210

JSON: /api/v1/satellites/69218 · /tle

For live sub-satellite position, see the globe view (requires WebGL).

§ Visibility from observer

Set your observer location to see the next 7 days of passes ≥ 10°. The values pass through the URL so the page stays shareable.

No JS? Fill the form by hand. The geolocation button needs JavaScript.